Regional Weather Roundup
Issued by NWS

Current Version | Previous Version | Text Only | Print | Product List | Glossary On
Versions: 1 2 3 4 5 6 7 8 9 10 11 12 13 14 15 16 17 18 19 20 21 22 23 24 25 26 27 28 29 30 31 32 33 34 35 36 37 38 39 40 41 42 43 44 45 46 47 48 49 50
000
ASUS45 KABQ 010210
RWRNM
NEW MEXICO REGIONAL WEATHER ROUNDUP
NATIONAL WEATHER SERVICE ALBUQUERQUE NM
800 PM MDT THU JUN 30 2022

NOTE: "FAIR" MEANS FEW OR NO CLOUDS BELOW 12,000 FEET AGL WITH NO
       SIGNIFICANT WEATHER OR OBSTRUCTIONS TO VISION.

      THIS PRODUCT IS RELEASED AS TWO VERSIONS.  ONE VERSION NEAR
      THE TOP OF THE HOUR CONTAINING PRELIMINARY DATA FROM ALBUQUERQUE
      AND OTHER STATIONS.  A FINAL VERSION WITH ADDITIONAL DATA IS
      ISSUED ABOUT 10 MINUTES AFTER THE HOUR.

NMZ201-203-204-210>218-010300-
NORTHWEST PLATEAU/NORTHCENTRAL MOUNTAINS

CITY           SKY/WX    TMP DP  RH WIND       PRES   REMARKS
FARMINGTON     CLOUDY    76  51  41 W13G26    30.16R
LOS ALAMOS     FAIR      73  46  37 W16       30.24S
SANTA FE       FAIR      80  48  32 W8        30.15R
TAOS           FAIR      79  41  25 W9        30.23R
ANGEL FIRE     MOCLDY    67  47  49 CALM      30.34R

$$
NMZ202-205>209-241-402-403-010300-
WESTCENTRAL MOUNTAINS/SOUTHWEST MOUNTAINS

CITY           SKY/WX    TMP DP  RH WIND       PRES   REMARKS
GALLUP         FAIR      67  55  65 CALM      30.28R
GRANTS           N/A     70  54  56 SE3       30.28S
SILVER CITY    FAIR      77  56  48 W25G33    30.16R

$$
NMZ407-409-411-412-010300-
SOUTHERN DESERTS

CITY           SKY/WX    TMP DP  RH WIND       PRES   REMARKS
DEMING         FAIR      84  54  35 S13       30.06R
LAS CRUCES     FAIR      89  45  21 S7        30.05R
HOLLOMAN AFB   FAIR      89  49  25 SE15      30.03S
ALAMOGORDO     FAIR      88  46  23 S10       30.02S
T OR C         MOCLDY    88  44  21 W7        30.07R

$$
NMZ219>223-010300-
CENTRAL VALLEYS/CENTRAL HIGHLANDS

CITY           SKY/WX    TMP DP  RH WIND       PRES   REMARKS
ALBUQUERQUE    MOCLDY    81  48  31 W14       30.10S
DOUBLE EAGLE   PTCLDY    77  48  36 W15       30.15S
MORIARTY ARPT  FAIR      77  47  34 SW13      30.17R
CLINES CORNERS FAIR      74  47  38 SW9       30.23R
BELEN          FAIR      82  43  24 W12       30.11R
SOCORRO        FAIR      85  44  24 W20G26    30.06S

$$
NMZ224>226-239-240-010300-
SOUTHCENTRAL MOUNTAINS

CITY           SKY/WX    TMP DP  RH WIND       PRES   REMARKS
RUIDOSO        FAIR      72  50  46 S7        30.26S

$$
NMZ227>231-010300-
NORTHEAST HIGHLANDS/NORTHEAST PLAINS

CITY           SKY/WX    TMP DP  RH WIND       PRES   REMARKS
LAS VEGAS      FAIR      77  42  28 SW16      30.19R
RATON          MOCLDY    77  47  34 N28G36    30.17R
CLAYTON        FAIR      83  46  27 S7        30.03R

$$
NMZ232>237-010300-
EASTCENTRAL PLAINS

CITY           SKY/WX    TMP DP  RH WIND       PRES   REMARKS
SANTA ROSA     FAIR      86  41  20 S15       30.02R
TUCUMCARI      FAIR      93  46  19 SW10      29.94R
CANNON AFB     FAIR      87  48  25 S13       30.02R
CLOVIS AIRPORT FAIR      87  50  27 SW12      30.03R

$$
NMZ028-029-033-238-010300-
SOUTHEAST PLAINS

CITY           SKY/WX    TMP DP  RH WIND       PRES   REMARKS
ROSWELL        FAIR      92  50  23 SW12      29.97R
ARTESIA        FAIR      91  48  22 SW5       29.99R
CARLSBAD       FAIR      91  39  16 SE8       29.95R
HOBBS          FAIR      88  45  22 S9        30.01R


$$



USA.gov is the U.S. government's official web portal to all federal, state and local government web resources and services.